Check out our new BloomSky Weather System.

Active alerts


No alerts


Thunder radar  blitzortung!


Rain radar more information rain snow radar


Visit our other weather sites:

Template documentation
and downloads

And another site



Weather Underground History page Text

Daily Summary for June 18, 2017 Units:  Metric    English   Both
« Previous Day
Next Day »
Daily Weekly Monthly Yearly Custom
  High: Low: Average:
Temperature: -17.8 °C 25.9 °C 29.9 °C
Dew Point: -17.8 °C 23.4 °C 24.6 °C
Humidity: Humidity % 53 % 74 %
Wind Speed: 0 km/h 0 km/h 7.7 km/h
Wind Gust: 0 km/h - -
Wind:- - SSE
Pressure: 0 hPa 1005.6 hPa -
Precipitation: 0 mm    
Historical Graphs
 
 
Tabular Data for June 18, 2017
Time Temperature Dew Point Pressure Wind Wind Speed Wind Gust Humidity Rainfall Rate (Hourly)
-17.8 °C -17.8 °C 0 hPa Calm     Humidity % 0 mm
00:00 27.5 °C 24.6 °C 1005.6 hPa SSW 20.9 km/h 20.9 km/h 84 % 0 mm
00:05 27.4 °C 24.7 °C 1005.6 hPa SSE 12.9 km/h 30.6 km/h 85 % 0 mm
00:10 27.4 °C 24.7 °C 1006 hPa South 11.3 km/h 30.6 km/h 85 % 0 mm
00:15 27.4 °C 24.7 °C 1006.3 hPa SSE 4.8 km/h 30.6 km/h 85 % 0 mm
00:20 27.4 °C 24.8 °C 1006.3 hPa SSE 9.7 km/h 27.4 km/h 86 % 0 mm
00:25 27.4 °C 24.8 °C 1006.3 hPa SSE 14.5 km/h 27.4 km/h 86 % 0 mm
00:30 27.4 °C 24.8 °C 1006.3 hPa South 9.7 km/h 20.9 km/h 86 % 0 mm
00:35 27.4 °C 25 °C 1006.3 hPa South 14.5 km/h 25.7 km/h 87 % 0 mm
00:40 27.4 °C 25 °C 1006.7 hPa SSE 4.8 km/h 25.7 km/h 87 % 0 mm
00:45 27.4 °C 25 °C 1006.7 hPa SSE 4.8 km/h 25.7 km/h 87 % 0 mm
00:50 27.4 °C 25 °C 1007 hPa South 6.4 km/h 22.5 km/h 87 % 0 mm
00:55 27.3 °C 24.9 °C 1007 hPa SSE 4.8 km/h 22.5 km/h 87 % 0 mm
01:00 27.3 °C 24.9 °C 1007 hPa SE 3.2 km/h 22.5 km/h 87 % 0 mm
01:05 27.3 °C 24.9 °C 1007 hPa South 9.7 km/h 22.5 km/h 87 % 0 mm
01:10 27.3 °C 24.9 °C 1006.7 hPa SSW 8 km/h 17.7 km/h 87 % 0 mm
01:15 27.3 °C 24.9 °C 1006.7 hPa SSE 11.3 km/h 20.9 km/h 87 % 0 mm
01:16 27.3 °C 24.9 °C 1006.7 hPa SE 9.7 km/h 20.9 km/h 87 % 0 mm
01:21 27.3 °C 24.9 °C 1006.7 hPa SSW 6.4 km/h 20.9 km/h 87 % 0 mm
01:26 27.3 °C 24.9 °C 1006.7 hPa SSE 3.2 km/h 20.9 km/h 87 % 0 mm
01:31 27.3 °C 24.9 °C 1006.7 hPa South 11.3 km/h 19.3 km/h 87 % 0 mm
01:36 27.3 °C 24.9 °C 1006.7 hPa SSE 17.7 km/h 20.9 km/h 87 % 0 mm
01:41 27.3 °C 24.9 °C 1006.7 hPa SSE 4.8 km/h 22.5 km/h 87 % 0 mm
01:46 27.3 °C 24.9 °C 1006.7 hPa South 9.7 km/h 22.5 km/h 87 % 0 mm
01:51 27.2 °C 24.8 °C 1006.7 hPa South 8 km/h 22.5 km/h 87 % 0 mm
01:56 27.2 °C 24.8 °C 1006.7 hPa South 4.8 km/h 17.7 km/h 87 % 0 mm
02:01 27.2 °C 24.8 °C 1006.7 hPa SE 6.4 km/h 17.7 km/h 87 % 0 mm
02:06 27.1 °C 24.9 °C 1006.7 hPa South 8 km/h 17.7 km/h 88 % 0 mm
02:11 27.1 °C 24.9 °C 1006.7 hPa South 6.4 km/h 17.7 km/h 88 % 0 mm
02:16 27.1 °C 24.9 °C 1006.7 hPa SSW 6.4 km/h 16.1 km/h 88 % 0 mm
02:21 27 °C 24.8 °C 1006.7 hPa SSE 8 km/h 16.1 km/h 88 % 0 mm
02:26 27 °C 24.8 °C 1006.7 hPa SSW 12.9 km/h 14.5 km/h 88 % 0 mm
02:31 27.1 °C 24.9 °C 1006.7 hPa SW 4.8 km/h 17.7 km/h 88 % 0 mm
02:36 27 °C 24.8 °C 1007 hPa SSE 14.5 km/h 17.7 km/h 88 % 0 mm
02:41 26.9 °C 24.7 °C 1007 hPa SSW 6.4 km/h 17.7 km/h 88 % 0 mm
02:46 26.9 °C 24.7 °C 1007 hPa South 6.4 km/h 14.5 km/h 88 % 0 mm
02:51 26.9 °C 24.7 °C 1007 hPa SW 8 km/h 16.1 km/h 88 % 0 mm
02:56 26.9 °C 24.7 °C 1007.3 hPa East 11.3 km/h 16.1 km/h 88 % 0 mm
03:01 26.9 °C 24.7 °C 1007 hPa SSW 9.7 km/h 16.1 km/h 88 % 0 mm
03:06 26.8 °C 24.6 °C 1007 hPa South 9.7 km/h 14.5 km/h 88 % 0 mm
03:11 26.8 °C 24.6 °C 1007 hPa SSW 8 km/h 14.5 km/h 88 % 0 mm
03:16 26.9 °C 24.7 °C 1007 hPa South 3.2 km/h 17.7 km/h 88 % 0 mm
03:21 26.9 °C 24.7 °C 1007.3 hPa SSE 6.4 km/h 17.7 km/h 88 % 0 mm
03:23 26.9 °C 24.7 °C 1007.3 hPa South 3.2 km/h 17.7 km/h 88 % 0 mm
03:28 26.9 °C 24.7 °C 1007.3 hPa SSW 1.6 km/h 17.7 km/h 88 % 0 mm
03:33 26.9 °C 24.9 °C 1007.3 hPa South 4.8 km/h 11.3 km/h 89 % 0 mm
03:38 26.9 °C 24.7 °C 1007.3 hPa South 6.4 km/h 9.7 km/h 88 % 0 mm
03:43 26.9 °C 24.7 °C 1007.3 hPa SSW 6.4 km/h 9.7 km/h 88 % 0 mm
03:48 26.9 °C 24.7 °C 1007.7 hPa SSW 6.4 km/h 11.3 km/h 88 % 0 mm
03:53 26.9 °C 24.7 °C 1007.7 hPa South 3.2 km/h 11.3 km/h 88 % 0 mm
03:58 26.9 °C 24.7 °C 1007.7 hPa SSE 3.2 km/h 11.3 km/h 88 % 0 mm
04:03 26.9 °C 24.7 °C 1007.7 hPa ESE 4.8 km/h 11.3 km/h 88 % 0 mm
04:08 26.9 °C 24.9 °C 1007.7 hPa SE 1.6 km/h 12.9 km/h 89 % 0 mm
04:13 26.8 °C 24.8 °C 1007.7 hPa SE 4.8 km/h 12.9 km/h 89 % 0 mm
04:18 26.8 °C 24.8 °C 1007.7 hPa SSE 1.6 km/h 12.9 km/h 89 % 0 mm
04:23 26.8 °C 24.8 °C 1007.7 hPa SE 1.6 km/h 9.7 km/h 89 % 0 mm
04:24 26.8 °C 24.8 °C 1007.7 hPa Calm   9.7 km/h 89 % 0 mm
04:29 26.7 °C 24.7 °C 1007.7 hPa South 4.8 km/h 9.7 km/h 89 % 0 mm
04:34 26.7 °C 24.7 °C 1008 hPa East 8 km/h 8 km/h 89 % 0 mm
04:39 26.7 °C 24.7 °C 1008 hPa SSE 3.2 km/h 9.7 km/h 89 % 0 mm
04:44 26.7 °C 24.7 °C 1008 hPa South 3.2 km/h 9.7 km/h 89 % 0 mm
04:49 26.7 °C 24.7 °C 1008 hPa SSE 3.2 km/h 9.7 km/h 89 % 0 mm
04:54 26.7 °C 24.7 °C 1008 hPa SE 3.2 km/h 8 km/h 89 % 0 mm
04:59 26.7 °C 24.7 °C 1008 hPa SE 3.2 km/h 8 km/h 89 % 0 mm
05:04 26.6 °C 24.6 °C 1008 hPa SE 3.2 km/h 8 km/h 89 % 0 mm
05:09 26.6 °C 24.6 °C 1008.4 hPa SSE 1.6 km/h 8 km/h 89 % 0 mm
05:14 26.6 °C 24.6 °C 1008.4 hPa SSW 3.2 km/h 8 km/h 89 % 0 mm
05:19 26.5 °C 24.7 °C 1008.4 hPa SSE 4.8 km/h 8 km/h 90 % 0 mm
05:24 26.4 °C 24.6 °C 1008.4 hPa SSE 1.6 km/h 6.4 km/h 90 % 0 mm
05:29 26.4 °C 24.6 °C 1008.4 hPa Calm   6.4 km/h 90 % 0 mm
05:34 26.3 °C 24.5 °C 1008.4 hPa Calm   6.4 km/h 90 % 0 mm
05:39 26.3 °C 24.5 °C 1008.4 hPa ESE 1.6 km/h 4.8 km/h 90 % 0 mm
05:44 26.3 °C 24.5 °C 1008.4 hPa ESE 6.4 km/h 6.4 km/h 90 % 0 mm
05:49 26.2 °C 24.6 °C 1008.4 hPa ESE 3.2 km/h 6.4 km/h 91 % 0 mm
05:54 26.2 °C 24.6 °C 1008.4 hPa SE 4.8 km/h 6.4 km/h 91 % 0 mm
05:59 26.1 °C 24.5 °C 1008.4 hPa SE 3.2 km/h 8 km/h 91 % 0 mm
06:05 26.1 °C 24.5 °C 1008.4 hPa East 3.2 km/h 8 km/h 91 % 0 mm
06:10 26.1 °C 24.5 °C 1008.4 hPa ESE 3.2 km/h 8 km/h 91 % 0 mm
06:15 26 °C 24.4 °C 1008.4 hPa ESE 1.6 km/h 8 km/h 91 % 0 mm
06:20 25.9 °C 24.3 °C 1008.7 hPa Calm   8 km/h 91 % 0 mm
06:25 25.9 °C 24.5 °C 1008.7 hPa ESE 3.2 km/h 6.4 km/h 92 % 0 mm
06:30 25.9 °C 24.5 °C 1008.7 hPa ESE 3.2 km/h 4.8 km/h 92 % 0 mm
06:35 25.9 °C 24.5 °C 1008.7 hPa SE 1.6 km/h 6.4 km/h 92 % 0 mm
06:40 25.9 °C 24.5 °C 1008.4 hPa ESE 3.2 km/h 8 km/h 92 % 0 mm
06:45 25.9 °C 24.5 °C 1008.7 hPa ESE 3.2 km/h 8 km/h 92 % 0 mm
06:46 25.9 °C 24.5 °C 1008.4 hPa Calm   8 km/h 92 % 0 mm
06:51 25.9 °C 24.5 °C 1008.4 hPa SSE 1.6 km/h 8 km/h 92 % 0 mm
06:56 25.9 °C 24.5 °C 1008.7 hPa South 1.6 km/h 6.4 km/h 92 % 0 mm
07:01 26 °C 24.6 °C 1008.7 hPa SE 3.2 km/h 6.4 km/h 92 % 0 mm
07:06 26.1 °C 24.7 °C 1008.7 hPa South 4.8 km/h 6.4 km/h 92 % 0 mm
07:11 26.3 °C 24.7 °C 1008.7 hPa SSE 4.8 km/h 8 km/h 91 % 0 mm
07:16 26.5 °C 24.9 °C 1008.7 hPa South 6.4 km/h 8 km/h 91 % 0 mm
07:21 26.7 °C 24.9 °C 1008.7 hPa SSE 3.2 km/h 8 km/h 90 % 0 mm
07:26 26.8 °C 25 °C 1008.7 hPa SE 4.8 km/h 8 km/h 90 % 0 mm
07:31 27 °C 25 °C 1008.7 hPa South 1.6 km/h 8 km/h 89 % 0 mm
07:36 27.2 °C 25.2 °C 1008.7 hPa SE 4.8 km/h 9.7 km/h 89 % 0 mm
07:41 27.3 °C 25.1 °C 1008.7 hPa SE 8 km/h 9.7 km/h 88 % 0 mm
07:46 27.5 °C 25.1 °C 1008.7 hPa SE 6.4 km/h 9.7 km/h 87 % 0 mm
07:51 27.6 °C 25.2 °C 1008.7 hPa SE 11.3 km/h 12.9 km/h 87 % 0 mm
07:56 27.7 °C 25.3 °C 1008.7 hPa SSE 4.8 km/h 12.9 km/h 87 % 0 mm
08:01 27.9 °C 25.5 °C 1009 hPa SSE 4.8 km/h 12.9 km/h 87 % 0 mm
08:06 28.2 °C 25.6 °C 1009 hPa South 8 km/h 14.5 km/h 86 % 0 mm
08:09 28.2 °C 25.4 °C 1009 hPa South 6.4 km/h 14.5 km/h 85 % 0 mm
08:14 28.4 °C 25.4 °C 1009 hPa East 6.4 km/h 14.5 km/h 84 % 0 mm
08:19 28.6 °C 25.6 °C 1009 hPa SSE 8 km/h 16.1 km/h 84 % 0 mm
08:24 28.7 °C 25.5 °C 1009 hPa SW 14.5 km/h 16.1 km/h 83 % 0 mm
08:29 28.8 °C 25.6 °C 1009 hPa SSW 8 km/h 19.3 km/h 83 % 0 mm
08:34 28.8 °C 25.4 °C 1009.4 hPa SSE 8 km/h 19.3 km/h 82 % 0 mm
08:39 28.9 °C 25.5 °C 1009.4 hPa SSE 14.5 km/h 20.9 km/h 82 % 0 mm
08:44 28.9 °C 25.5 °C 1009.4 hPa South 14.5 km/h 20.9 km/h 82 % 0 mm
08:49 29 °C 25.6 °C 1009.7 hPa SSE 9.7 km/h 20.9 km/h 82 % 0 mm
08:54 29.2 °C 25.6 °C 1009.7 hPa WSW 9.7 km/h 20.9 km/h 81 % 0 mm
08:59 29.4 °C 25.6 °C 1009.7 hPa SSW 1.6 km/h 20.9 km/h 80 % 0 mm
09:04 29.8 °C 25.8 °C 1009.7 hPa SSW 6.4 km/h 20.9 km/h 79 % 0 mm
09:09 29.9 °C 25.4 °C 1010 hPa SSE 16.1 km/h 17.7 km/h 77 % 0 mm
09:14 29.9 °C 25.6 °C 1010 hPa SSW 8 km/h 22.5 km/h 78 % 0 mm
09:19 29.9 °C 25.4 °C 1010 hPa SW 6.4 km/h 22.5 km/h 77 % 0 mm
09:24 29.8 °C 25.1 °C 1010 hPa SSW 11.3 km/h 22.5 km/h 76 % 0 mm
09:29 29.7 °C 25 °C 1009.7 hPa South 8 km/h 17.7 km/h 76 % 0 mm
09:34 29.7 °C 25.2 °C 1009.7 hPa SSE 12.9 km/h 17.7 km/h 77 % 0 mm
09:39 29.9 °C 25.4 °C 1009.4 hPa South 6.4 km/h 17.7 km/h 77 % 0 mm
09:44 30.1 °C 25.6 °C 1009.4 hPa South 11.3 km/h 17.7 km/h 77 % 0 mm
09:49 29.9 °C 25 °C 1009.4 hPa WNW 4.8 km/h 17.7 km/h 75 % 0 mm
09:51 30 °C 25.5 °C 1009.4 hPa SW 4.8 km/h 22.5 km/h 77 % 0 mm
09:56 30.4 °C 25.2 °C 1009.4 hPa SSW 8 km/h 22.5 km/h 74 % 0 mm
10:01 30.6 °C 25.4 °C 1009.4 hPa SSW 6.4 km/h 22.5 km/h 74 % 0 mm
10:06 30.5 °C 25.1 °C 1009.7 hPa SSE 9.7 km/h 20.9 km/h 73 % 0 mm
10:11 30.4 °C 25 °C 1009.7 hPa SSE 4.8 km/h 20.9 km/h 73 % 0 mm
10:16 30.6 °C 25.2 °C 1009.7 hPa South 9.7 km/h 19.3 km/h 73 % 0 mm
10:21 30.9 °C 25 °C 1010 hPa SSE 9.7 km/h 19.3 km/h 71 % 0 mm
10:26 30.9 °C 25 °C 1010 hPa SSE 6.4 km/h 24.1 km/h 71 % 0 mm
10:31 31 °C 25.1 °C 1010 hPa SE 4.8 km/h 24.1 km/h 71 % 0 mm
10:36 31.2 °C 25.1 °C 1010.4 hPa SSE 11.3 km/h 24.1 km/h 70 % 0 mm
10:41 30.8 °C 24.7 °C 1010.4 hPa SE 6.4 km/h 12.9 km/h 70 % 0 mm
10:46 30.8 °C 24.9 °C 1010.4 hPa South 8 km/h 12.9 km/h 71 % 0 mm
10:56 31.4 °C 25.5 °C 1010 hPa South 4.8 km/h 12.9 km/h 71 % 0 mm
11:06 31.4 °C 25.5 °C 1010 hPa SSE 4.8 km/h 16.1 km/h 71 % 0 mm
11:11 31.8 °C 25.2 °C 1010 hPa South 9.7 km/h 16.1 km/h 68 % 0 mm
11:16 31.8 °C 25.2 °C 1010 hPa SSW 12.9 km/h 16.1 km/h 68 % 0 mm
11:21 31.9 °C 25.7 °C 1010 hPa SSW 9.7 km/h 16.1 km/h 70 % 0 mm
11:26 32.2 °C 26.3 °C 1010 hPa SSE 6.4 km/h 17.7 km/h 71 % 0 mm
11:31 32.4 °C 25.5 °C 1009.7 hPa SSW 8 km/h 17.7 km/h 67 % 0 mm
11:36 32.6 °C 25.4 °C 1009.7 hPa SSW 8 km/h 19.3 km/h 66 % 0 mm
11:41 32.6 °C 25.2 °C 1009.7 hPa SW 17.7 km/h 19.3 km/h 65 % 0 mm
11:46 32.3 °C 25.1 °C 1009.7 hPa SSE 6.4 km/h 19.3 km/h 66 % 0 mm
11:51 32.6 °C 24.6 °C 1009.7 hPa South 6.4 km/h 19.3 km/h 63 % 0 mm
11:57 32.8 °C 25.3 °C 1010 hPa ESE 6.4 km/h 19.3 km/h 65 % 0 mm
12:02 33.1 °C 24.6 °C 1010 hPa SE 6.4 km/h 17.7 km/h 61 % 0 mm
12:07 33 °C 24.7 °C 1010 hPa SSW 11.3 km/h 19.3 km/h 62 % 0 mm
12:12 32.9 °C 24.6 °C 1010 hPa SE 9.7 km/h 19.3 km/h 62 % 0 mm
12:17 32.8 °C 24.3 °C 1010 hPa ENE 4.8 km/h 19.3 km/h 61 % 0 mm
12:22 32.8 °C 24.3 °C 1010.4 hPa SSE 8 km/h 17.7 km/h 61 % 0 mm
12:27 33.1 °C 24.6 °C 1010.4 hPa SSE 9.7 km/h 17.7 km/h 61 % 0 mm
12:32 32.9 °C 24.4 °C 1010.4 hPa SSE 8 km/h 17.7 km/h 61 % 0 mm
12:37 33 °C 24.7 °C 1010.4 hPa SSW 6.4 km/h 16.1 km/h 62 % 0 mm
12:42 33 °C 24.7 °C 1010.4 hPa WSW 4.8 km/h 16.1 km/h 62 % 0 mm
12:47 33.3 °C 24.8 °C 1010.4 hPa East 6.4 km/h 11.3 km/h 61 % 0 mm
12:52 33.5 °C 24.9 °C 1010.4 hPa SSE 8 km/h 24.1 km/h 61 % 0 mm
12:57 33.7 °C 24.6 °C 1010.4 hPa SSE 3.2 km/h 24.1 km/h 59 % 0 mm
13:02 34 °C 24.8 °C 1010.4 hPa ESE 17.7 km/h 24.1 km/h 59 % 0 mm
13:07 33.6 °C 24.2 °C 1010 hPa South 9.7 km/h 24.1 km/h 58 % 0 mm
13:12 33.7 °C 24.6 °C 1010 hPa ESE 9.7 km/h 24.1 km/h 59 % 0 mm
13:17 33.9 °C 24.8 °C 1010 hPa South 8 km/h 24.1 km/h 59 % 0 mm
13:22 34.3 °C 24.6 °C 1010 hPa South 11.3 km/h 16.1 km/h 57 % 0 mm
13:27 34.3 °C 24.3 °C 1010 hPa East 6.4 km/h 17.7 km/h 56 % 0 mm
13:32 34.3 °C 24.3 °C 1010 hPa SE 9.7 km/h 20.9 km/h 56 % 0 mm
13:37 34.5 °C 24.4 °C 1010 hPa SSE 11.3 km/h 20.9 km/h 56 % 0 mm
13:42 34.3 °C 24.3 °C 1010 hPa SSE 9.7 km/h 20.9 km/h 56 % 0 mm
13:47 34.2 °C 23.9 °C 1009.7 hPa SSW 4.8 km/h 14.5 km/h 55 % 0 mm
13:52 34.4 °C 24 °C 1009.7 hPa South 8 km/h 12.9 km/h 55 % 0 mm
13:57 34.2 °C 23.9 °C 1009.7 hPa ESE 6.4 km/h 20.9 km/h 55 % 0 mm
14:02 34.5 °C 24.4 °C 1009.4 hPa SSE 11.3 km/h 20.9 km/h 56 % 0 mm
14:07 34.6 °C 24.2 °C 1009.4 hPa South 6.4 km/h 20.9 km/h 55 % 0 mm
14:12 34.5 °C 23.5 °C 1009.4 hPa SE 8 km/h 19.3 km/h 53 % 0 mm
14:17 34.6 °C 23.6 °C 1009 hPa South 8 km/h 20.9 km/h 53 % 0 mm
14:22 34.6 °C 24.2 °C 1008.7 hPa South 14.5 km/h 20.9 km/h 55 % 0 mm
14:27 34.6 °C 23.9 °C 1008.7 hPa SSE 9.7 km/h 20.9 km/h 54 % 0 mm
14:32 34.7 °C 24.3 °C 1008.7 hPa SSE 6.4 km/h 17.7 km/h 55 % 0 mm
14:37 34.7 °C 24 °C 1008.7 hPa South 11.3 km/h 17.7 km/h 54 % 0 mm
14:42 34.7 °C 24 °C 1008.4 hPa SSE 14.5 km/h 17.7 km/h 54 % 0 mm
14:47 34.4 °C 23.7 °C 1008.4 hPa SSE 16.1 km/h 22.5 km/h 54 % 0 mm
14:52 34.2 °C 24.2 °C 1008.4 hPa East 12.9 km/h 25.7 km/h 56 % 0 mm
14:57 34.4 °C 23.7 °C 1008.4 hPa SE 16.1 km/h 25.7 km/h 54 % 0 mm
15:02 34.4 °C 24 °C 1008 hPa SE 11.3 km/h 25.7 km/h 55 % 0 mm
15:07 34.6 °C 24.2 °C 1008 hPa ESE 14.5 km/h 20.9 km/h 55 % 0 mm
15:12 34.4 °C 23.4 °C 1008 hPa SE 14.5 km/h 19.3 km/h 53 % 0 mm
15:17 34.4 °C 23.7 °C 1008 hPa SSE 11.3 km/h 22.5 km/h 54 % 0 mm
15:22 34.6 °C 23.9 °C 1008 hPa South 6.4 km/h 22.5 km/h 54 % 0 mm
15:27 34.6 °C 23.9 °C 1008 hPa South 8 km/h 22.5 km/h 54 % 0 mm
15:32 34.6 °C 24.8 °C 1008 hPa SE 9.7 km/h 20.9 km/h 57 % 0 mm
15:37 34.5 °C 24.1 °C 1008 hPa SSE 12.9 km/h 20.9 km/h 55 % 0 mm
15:42 34.5 °C 24.4 °C 1008 hPa WSW 6.4 km/h 20.9 km/h 56 % 0 mm
15:47 34.4 °C 24.3 °C 1008 hPa South 6.4 km/h 20.9 km/h 56 % 0 mm
15:52 34.3 °C 24.6 °C 1008 hPa South 6.4 km/h 20.9 km/h 57 % 0 mm
15:57 34.6 °C 24.8 °C 1008 hPa ESE 8 km/h 16.1 km/h 57 % 0 mm
16:02 34.6 °C 24.5 °C 1008 hPa SE 8 km/h 19.3 km/h 56 % 0 mm
16:07 34.4 °C 24.3 °C 1008 hPa SE 9.7 km/h 19.3 km/h 56 % 0 mm
16:12 34.4 °C 24.3 °C 1008 hPa SE 11.3 km/h 19.3 km/h 56 % 0 mm
16:18 34.3 °C 25.1 °C 1008 hPa ESE 11.3 km/h 16.1 km/h 59 % 0 mm
16:23 34.2 °C 24.5 °C 1008 hPa ESE 14.5 km/h 19.3 km/h 57 % 0 mm
16:28 34.3 °C 24.6 °C 1008 hPa SE 11.3 km/h 19.3 km/h 57 % 0 mm
16:33 34.5 °C 24.4 °C 1008 hPa SE 12.9 km/h 19.3 km/h 56 % 0 mm
16:38 34.4 °C 24 °C 1008 hPa SSE 6.4 km/h 19.3 km/h 55 % 0 mm
16:43 34.2 °C 24.2 °C 1008 hPa SE 8 km/h 19.3 km/h 56 % 0 mm
16:48 34.2 °C 24.8 °C 1008 hPa South 14.5 km/h 19.3 km/h 58 % 0 mm
16:53 34.3 °C 24.3 °C 1008 hPa ESE 11.3 km/h 17.7 km/h 56 % 0 mm
16:58 34.4 °C 24.3 °C 1008 hPa East 9.7 km/h 16.1 km/h 56 % 0 mm
17:03 34.6 °C 24.5 °C 1008 hPa SSW 8 km/h 16.1 km/h 56 % 0 mm
17:08 34.5 °C 24.1 °C 1007.7 hPa SSE 4.8 km/h 16.1 km/h 55 % 0 mm
17:13 34.6 °C 24.5 °C 1007.7 hPa ESE 11.3 km/h 17.7 km/h 56 % 0 mm
17:18 34.3 °C 24.6 °C 1007.7 hPa SW 16.1 km/h 22.5 km/h 57 % 0 mm
17:23 34.2 °C 24.5 °C 1007.7 hPa SSE 9.7 km/h 22.5 km/h 57 % 0 mm
17:28 34.2 °C 24.8 °C 1007.7 hPa SSE 9.7 km/h 22.5 km/h 58 % 0 mm
17:33 34.2 °C 24.8 °C 1007.7 hPa SE 9.7 km/h 19.3 km/h 58 % 0 mm
17:38 34 °C 24.6 °C 1008 hPa WSW 6.4 km/h 19.3 km/h 58 % 0 mm
17:43 33.8 °C 24.7 °C 1008 hPa SSE 11.3 km/h 19.3 km/h 59 % 0 mm
17:48 33.7 °C 24.6 °C 1008 hPa SSE 8 km/h 17.7 km/h 59 % 0 mm
17:53 33.7 °C 24.3 °C 1008 hPa ESE 6.4 km/h 17.7 km/h 58 % 0 mm
17:58 33.8 °C 24.4 °C 1008 hPa SSW 6.4 km/h 16.1 km/h 58 % 0 mm
18:03 33.7 °C 24.3 °C 1008 hPa SSE 6.4 km/h 16.1 km/h 58 % 0 mm
18:08 33.6 °C 24.2 °C 1008 hPa South 12.9 km/h 16.1 km/h 58 % 0 mm
18:13 33.5 °C 24.4 °C 1008 hPa SE 8 km/h 16.1 km/h 59 % 0 mm
18:18 33.4 °C 24.6 °C 1008 hPa SSE 6.4 km/h 17.7 km/h 60 % 0 mm
18:23 33.3 °C 24.8 °C 1008 hPa SE 14.5 km/h 17.7 km/h 61 % 0 mm
18:28 33.2 °C 24.9 °C 1008 hPa South 11.3 km/h 17.7 km/h 62 % 0 mm
18:33 33.1 °C 24.8 °C 1007.7 hPa South 11.3 km/h 17.7 km/h 62 % 0 mm
18:35 33 °C 24.7 °C 1007.7 hPa SSW 11.3 km/h 17.7 km/h 62 % 0 mm
18:40 32.8 °C 24.8 °C 1007.7 hPa SE 9.7 km/h 17.7 km/h 63 % 0 mm
18:45 32.7 °C 24.7 °C 1008 hPa SE 14.5 km/h 19.3 km/h 63 % 0 mm
18:50 32.7 °C 24.7 °C 1008 hPa SE 8 km/h 20.9 km/h 63 % 0 mm
18:55 32.6 °C 24.6 °C 1008 hPa SE 6.4 km/h 20.9 km/h 63 % 0 mm
19:00 32.4 °C 24.4 °C 1008 hPa SE 11.3 km/h 20.9 km/h 63 % 0 mm
19:05 32.3 °C 24.6 °C 1008 hPa South 12.9 km/h 20.9 km/h 64 % 0 mm
19:10 32.2 °C 24.8 °C 1008 hPa SSE 4.8 km/h 20.9 km/h 65 % 0 mm
19:15 32.1 °C 24.9 °C 1008.4 hPa SSE 11.3 km/h 20.9 km/h 66 % 0 mm
19:20 31.9 °C 24.8 °C 1008.4 hPa South 12.9 km/h 20.9 km/h 66 % 0 mm
19:25 31.8 °C 24.9 °C 1008.4 hPa South 4.8 km/h 20.9 km/h 67 % 0 mm
19:30 31.7 °C 24.8 °C 1008.4 hPa South 9.7 km/h 19.3 km/h 67 % 0 mm
19:35 31.6 °C 25 °C 1008.4 hPa South 11.3 km/h 22.5 km/h 68 % 0 mm
19:40 31.4 °C 24.8 °C 1008.4 hPa South 9.7 km/h 22.5 km/h 68 % 0 mm
19:45 31.3 °C 24.7 °C 1008.4 hPa SSE 12.9 km/h 22.5 km/h 68 % 0 mm
19:50 31.2 °C 24.6 °C 1008.4 hPa SE 12.9 km/h 22.5 km/h 68 % 0 mm
19:55 31.1 °C 24.5 °C 1008.4 hPa SE 12.9 km/h 20.9 km/h 68 % 0 mm
20:00 31 °C 24.6 °C 1008.4 hPa SSE 4.8 km/h 20.9 km/h 69 % 0 mm
20:05 30.9 °C 24.5 °C 1008.7 hPa SE 9.7 km/h 22.5 km/h 69 % 0 mm
20:10 30.8 °C 24.7 °C 1008.7 hPa South 6.4 km/h 22.5 km/h 70 % 0 mm
20:12 30.8 °C 24.7 °C 1008.7 hPa South 11.3 km/h 22.5 km/h 70 % 0 mm
20:17 30.6 °C 24.5 °C 1008.7 hPa SE 8 km/h 22.5 km/h 70 % 0 mm
20:22 30.4 °C 24.3 °C 1008.7 hPa SE 12.9 km/h 22.5 km/h 70 % 0 mm
20:27 30.3 °C 24.4 °C 1008.7 hPa South 11.3 km/h 22.5 km/h 71 % 0 mm
20:32 30.2 °C 24.4 °C 1009 hPa SSE 11.3 km/h 22.5 km/h 71 % 0 mm
20:37 30.1 °C 24.3 °C 1009 hPa SSE 6.4 km/h 17.7 km/h 71 % 0 mm
20:42 30.1 °C 24.3 °C 1009 hPa SE 11.3 km/h 19.3 km/h 71 % 0 mm
20:47 30 °C 24.2 °C 1009 hPa SE 6.4 km/h 19.3 km/h 71 % 0 mm
20:52 29.9 °C 24.3 °C 1009 hPa SSW 6.4 km/h 19.3 km/h 72 % 0 mm
20:57 29.8 °C 24.2 °C 1009 hPa SSE 4.8 km/h 19.3 km/h 72 % 0 mm
21:02 29.7 °C 24.3 °C 1008.7 hPa SE 8 km/h 19.3 km/h 73 % 0 mm
21:07 29.7 °C 24.3 °C 1008.7 hPa SSW 6.4 km/h 17.7 km/h 73 % 0 mm
21:12 29.6 °C 24.2 °C 1008.7 hPa SSW 12.9 km/h 16.1 km/h 73 % 0 mm
21:17 29.5 °C 24.4 °C 1008.7 hPa SSE 6.4 km/h 14.5 km/h 74 % 0 mm
21:22 29.4 °C 24.3 °C 1008.7 hPa SE 8 km/h 14.5 km/h 74 % 0 mm
21:27 29.4 °C 24.3 °C 1009 hPa SE 4.8 km/h 12.9 km/h 74 % 0 mm
21:32 29.3 °C 24.4 °C 1009 hPa SSE 4.8 km/h 12.9 km/h 75 % 0 mm
21:37 29.3 °C 24.4 °C 1009 hPa SSE 8 km/h 12.9 km/h 75 % 0 mm
21:42 29.3 °C 24.6 °C 1009 hPa ESE 11.3 km/h 12.9 km/h 76 % 0 mm
21:47 29.2 °C 24.7 °C 1009 hPa SE 6.4 km/h 14.5 km/h 77 % 0 mm
21:52 29.1 °C 24.9 °C 1009.4 hPa SE 6.4 km/h 14.5 km/h 78 % 0 mm
21:57 29 °C 24.8 °C 1009.4 hPa ESE 11.3 km/h 17.7 km/h 78 % 0 mm
22:02 28.9 °C 24.9 °C 1009.4 hPa SSW 12.9 km/h 17.7 km/h 79 % 0 mm
22:07 28.8 °C 24.8 °C 1009.4 hPa ENE 6.4 km/h 17.7 km/h 79 % 0 mm
22:12 28.8 °C 25 °C 1009.4 hPa SSE 9.7 km/h 16.1 km/h 80 % 0 mm
22:17 28.7 °C 24.9 °C 1009.4 hPa SSW 6.4 km/h 14.5 km/h 80 % 0 mm
22:22 28.7 °C 24.9 °C 1009.7 hPa South 6.4 km/h 14.5 km/h 80 % 0 mm
22:27 28.6 °C 25 °C 1009.7 hPa SE 8 km/h 14.5 km/h 81 % 0 mm
22:32 28.6 °C 25 °C 1010 hPa East 17.7 km/h 17.7 km/h 81 % 0 mm
22:37 28.6 °C 25 °C 1010 hPa SSE 8 km/h 17.7 km/h 81 % 0 mm
22:43 28.5 °C 24.9 °C 1010 hPa SSW 3.2 km/h 17.7 km/h 81 % 0 mm
22:48 28.4 °C 25 °C 1010 hPa South 3.2 km/h 17.7 km/h 82 % 0 mm
22:53 28.3 °C 24.9 °C 1010 hPa SSW 4.8 km/h 16.1 km/h 82 % 0 mm
22:58 28.3 °C 24.9 °C 1010 hPa SSE 4.8 km/h 9.7 km/h 82 % 0 mm
23:03 28.2 °C 24.8 °C 1010 hPa SSE 3.2 km/h 9.7 km/h 82 % 0 mm
23:08 28.2 °C 24.8 °C 1010 hPa SE 4.8 km/h 8 km/h 82 % 0 mm
23:13 28.1 °C 24.7 °C 1010.4 hPa South 3.2 km/h 8 km/h 82 % 0 mm
23:18 28.1 °C 24.7 °C 1010.4 hPa SSE 4.8 km/h 8 km/h 82 % 0 mm
23:23 28.1 °C 24.7 °C 1010.4 hPa South 3.2 km/h 14.5 km/h 82 % 0 mm
23:28 28.1 °C 24.7 °C 1010.4 hPa SSE 6.4 km/h 14.5 km/h 82 % 0 mm
23:33 28.1 °C 24.7 °C 1010.4 hPa South 3.2 km/h 14.5 km/h 82 % 0 mm
23:38 28.1 °C 24.7 °C 1010.4 hPa SE 6.4 km/h 11.3 km/h 82 % 0 mm
23:43 28 °C 24.6 °C 1010.4 hPa SSE 4.8 km/h 11.3 km/h 82 % 0 mm
23:48 27.9 °C 24.7 °C 1010.4 hPa SE 4.8 km/h 9.7 km/h 83 % 0 mm
23:53 28 °C 24.8 °C 1010.4 hPa SSW 3.2 km/h 11.3 km/h 83 % 0 mm
23:58 27.9 °C 24.7 °C 1010.4 hPa South 3.2 km/h 11.3 km/h 83 % 0 mm
Spring, Texas: Villages of Bridgestone
Compliments of Weather Underground - 2.75 mb

Script developed by  Jim McMurry - jmcmurry@mwt.net Adapted for the template by  Wim van der Kuil - Leuven-Template.eu

You find our weather info also at:

UK Metoffice

WeatherCloud

Weather Underground

Mid-South Weather Network

AWEKAS

Citizen Weather Observer Program (CWOP)

HAMweather, WeatherForYou, PWS Weather

Equipment we use:

Weather-station
Davis Vantage Vue

Weather-program
Meteohub

Weather-server
Debian 7.9 x86 (Guest)

Provider
DreamHost

Davis Vantage Vue

Meteohub

Debian 7.9 x86 (Guest)

DreamHost